Showing default

SHIYAN 20A (SY-20A), 54699

Orbit data source: Space-Track

SHIYAN 20A (SY-20A), 54699 is a payload satellite owned by CAST (CN) in LEO that was launched on Mon, 12 Dec 2022 UTC via a CHANG ZHENG 4C launch vehicle from the Jiuquan Satellite Launch Center, China (JSC). Payload-class satellites include a variety of spacecraft equipped with specific instruments for various scientific and technological missions. These include communications satellites like Starlink; space stations such as the ISS; scientific satellites like the Hubble; Earth observation satellites from companies like Planet Labs, Umbra, and HawkEye 360; GPS; miniature CubeSats for education and research; and military/defense satellites.

Loading next visibility...
Identifier
54699, 2022-169A
Orbit
LEO
Country
Flag of CNCN / PRC
Related business
Manufacturer
CAST
Mission
Operational Defense Technology
Bus & Motor
Unknown
Mass
~500 kg wet, ~500 kg dry
Launch date (UTC)
2022-12-12 (4 years ago)
Launch vehicle
CHANG ZHENG 4C
Launch site
Jiuquan Satellite Launch Center, China (JSC)
Object type
Payload
Rocket body
Debris
Shape & HBR
Box + 2 Pan, 2.5 m
Radar Cross Section
11.063 m², Large (>1 m²)

Expand to show TLE details & history
Last TLE update: 23 hours ago

TLE from 23 hours ago
0 SHIYAN 20A (SY-20A)
1 54699U 22169A   26172.50009475 -.00000049  00000-0  34213-4 0  9992
2 54699  59.9951 226.1924 0006594 177.5507 182.5562 14.29584411183971
Epoch: 2026-06-21T12:00Z
TLE epoch observation values (Epoch: 2026-06-21T12:00:08.186Z)
Latitude
0.00003°
Longitude
136.45883°
Altitude
799.376 km
Speed
7.452 km/s
True Right ascension
15h 04m 46s
True Declination
0° 00' 00"
Sunlit
Object was in full shadow at epoch
Visualization orbit readout
Latitude
Unknown
Longitude
Unknown
Altitude
Unknown
Speed
Unknown
Apparent Right ascension
Unknown
Apparent Declination
Unknown
Sunlit
N/A
Visualization observer readout
Local Sidereal Time
21:32:39
Azimuth
Unknown
Elevation
Unknown
Doppler factor
Unknown
Orbital elements
Apogee altitude
797.086 km
Perigee altitude
787.63 km
Semi-major axis
7,170.495 km
Eccentricity
0.00066
Inclination
59.9951°
RAAN
226.1924°
Arg. of periapsis
177.5507°
True anomaly
182.55283°
Mean anomaly
182.5562°
Eccentric anomaly
182.55452°
Mean motion
3.57453 °/min
Orbital period
100.71 mins
BSTAR
0.000034213
Loading maneuver chart data...
Computing Atmospheric mass density...
Loading historical data...
Loading historical data...
Loading historical data...
Loading historical data...
Loading historical data...
Loading historical data...
Loading historical data...
Other satellites on launch #169 in the year 2022 (2022-12-12 UTC)

Documentation

Showing up to 5 results
|